Time,TemperatureF,DewpointF,PressureIn,WindDirection,WindDirectionDegrees,WindSpeedMPH,WindSpeedGustMPH,Humidity,HourlyPrecipIn,Conditions,Clouds,dailyrainin,SoftwareType,DateUTC
2013-02-21 00:00:00,20.4,15.5,30.32,NNW,345,5.0,22.0,81,0.00,,,0.00,Wunderground v.1.15,2013-02-21 05:00:00,
2013-02-21 00:05:00,20.3,15.4,30.33,NW,317,6.0,22.0,81,0.00,,,0.00,Wunderground v.1.15,2013-02-21 05:05:00,
2013-02-21 00:10:00,20.3,15.4,30.33,NW,309,5.0,22.0,81,0.00,,,0.00,Wunderground v.1.15,2013-02-21 05:10:00,
2013-02-21 00:15:00,20.2,15.3,30.33,NW,307,5.0,22.0,81,0.00,,,0.00,Wunderground v.1.15,2013-02-21 05:15:00,
2013-02-21 00:25:00,20.0,15.4,30.33,NNW,336,3.0,22.0,82,0.00,,,0.00,Wunderground v.1.15,2013-02-21 05:25:00,
2013-02-21 00:30:00,19.9,15.3,30.32,NW,309,4.0,22.0,82,0.00,,,0.00,Wunderground v.1.15,2013-02-21 05:30:00,
2013-02-21 00:35:00,19.9,15.3,30.32,NNW,338,4.0,22.0,82,0.00,,,0.00,Wunderground v.1.15,2013-02-21 05:35:00,
2013-02-21 00:40:00,19.8,15.2,30.33,NW,319,4.0,4.0,82,0.00,,,0.00,Wunderground v.1.15,2013-02-21 05:40:00,
2013-02-21 00:45:00,19.8,15.2,30.33,NW,314,4.0,22.0,82,0.00,,,0.00,Wunderground v.1.15,2013-02-21 05:45:00,
2013-02-21 00:50:00,19.7,15.1,30.33,North,355,4.0,22.0,82,0.00,,,0.00,Wunderground v.1.15,2013-02-21 05:50:00,
2013-02-21 01:00:00,19.7,15.4,30.33,NNW,348,2.0,2.0,83,0.00,,,0.00,Wunderground v.1.15,2013-02-21 06:00:00,
2013-02-21 01:10:00,19.4,15.1,30.34,NNW,347,3.0,22.0,83,0.00,,,0.00,Wunderground v.1.15,2013-02-21 06:10:00,
2013-02-21 01:15:00,19.4,15.4,30.34,NW,326,2.0,22.0,84,0.00,,,0.00,Wunderground v.1.15,2013-02-21 06:15:00,
2013-02-21 01:20:00,19.4,15.4,30.34,NNW,341,2.0,2.0,84,0.00,,,0.00,Wunderground v.1.15,2013-02-21 06:20:00,
2013-02-21 01:25:00,19.4,15.4,30.34,NNW,340,2.0,22.0,84,0.00,,,0.00,Wunderground v.1.15,2013-02-21 06:25:00,
2013-02-21 01:30:00,19.3,15.0,30.34,NNW,348,2.0,22.0,83,0.00,,,0.00,Wunderground v.1.15,2013-02-21 06:30:00,
2013-02-21 01:40:00,19.2,14.6,30.34,NNW,344,3.0,22.0,82,0.00,,,0.00,Wunderground v.1.15,2013-02-21 06:40:00,
2013-02-21 01:45:00,19.2,14.6,30.34,NW,304,3.0,22.0,82,0.00,,,0.00,Wunderground v.1.15,2013-02-21 06:45:00,
2013-02-21 01:50:00,19.1,14.5,30.34,NW,317,3.0,22.0,82,0.00,,,0.00,Wunderground v.1.15,2013-02-21 06:50:00,
2013-02-21 01:55:00,19.0,14.4,30.34,NNW,327,3.0,22.0,82,0.00,,,0.00,Wunderground v.1.15,2013-02-21 06:55:00,
2013-02-21 02:00:00,18.9,14.6,30.35,North,355,3.0,3.0,83,0.00,,,0.00,Wunderground v.1.15,2013-02-21 07:00:00,
2013-02-21 02:05:00,18.8,14.5,30.35,NNE,17,3.0,22.0,83,0.00,,,0.00,Wunderground v.1.15,2013-02-21 07:05:00,
2013-02-21 02:15:00,18.6,14.3,30.35,North,349,2.0,22.0,83,0.00,,,0.00,Wunderground v.1.15,2013-02-21 07:15:00,
2013-02-21 02:20:00,18.5,14.2,30.35,NNW,344,2.0,22.0,83,0.00,,,0.00,Wunderground v.1.15,2013-02-21 07:20:00,
2013-02-21 02:25:00,18.3,14.0,30.35,NNE,26,3.0,22.0,83,0.00,,,0.00,Wunderground v.1.15,2013-02-21 07:25:00,
2013-02-21 02:30:00,18.1,13.8,30.36,NNW,345,3.0,3.0,83,0.00,,,0.00,Wunderground v.1.15,2013-02-21 07:30:00,
2013-02-21 02:35:00,18.0,13.7,30.36,NNE,26,2.0,22.0,83,0.00,,,0.00,Wunderground v.1.15,2013-02-21 07:35:00,
2013-02-21 02:45:00,17.3,13.0,30.36,NNW,348,1.0,22.0,83,0.00,,,0.00,Wunderground v.1.15,2013-02-21 07:45:00,
2013-02-21 02:50:00,17.1,12.8,30.36,NNE,13,1.0,22.0,83,0.00,,,0.00,Wunderground v.1.15,2013-02-21 07:50:00,
2013-02-21 02:55:00,17.0,13.0,30.37,NNW,334,1.0,22.0,84,0.00,,,0.00,Wunderground v.1.15,2013-02-21 07:55:00,
2013-02-21 03:00:00,16.8,12.8,30.37,NNE,19,1.0,22.0,84,0.00,,,0.00,Wunderground v.1.15,2013-02-21 08:00:00,
2013-02-21 03:05:00,16.6,12.3,30.37,NE,48,2.0,22.0,83,0.00,,,0.00,Wunderground v.1.15,2013-02-21 08:05:00,
2013-02-21 03:10:00,16.4,12.1,30.37,NW,325,1.0,22.0,83,0.00,,,0.00,Wunderground v.1.15,2013-02-21 08:10:00,
2013-02-21 03:20:00,16.3,12.3,30.38,NE,42,1.0,22.0,84,0.00,,,0.00,Wunderground v.1.15,2013-02-21 08:20:00,
2013-02-21 03:25:00,16.2,12.2,30.38,NNE,24,1.0,22.0,84,0.00,,,0.00,Wunderground v.1.15,2013-02-21 08:25:00,
2013-02-21 03:30:00,16.2,12.2,30.38,NNE,15,2.0,2.0,84,0.00,,,0.00,Wunderground v.1.15,2013-02-21 08:30:00,
2013-02-21 03:35:00,16.1,12.1,30.38,NNE,16,1.0,22.0,84,0.00,,,0.00,Wunderground v.1.15,2013-02-21 08:35:00,
2013-02-21 03:40:00,16.1,12.1,30.38,NNW,337,0.0,22.0,84,0.00,,,0.00,Wunderground v.1.15,2013-02-21 08:40:00,
2013-02-21 03:50:00,16.0,12.3,30.38,NNE,15,1.0,1.0,85,0.00,,,0.00,Wunderground v.1.15,2013-02-21 08:50:00,
2013-02-21 03:55:00,16.0,12.3,30.38,NNW,338,1.0,22.0,85,0.00,,,0.00,Wunderground v.1.15,2013-02-21 08:55:00,
2013-02-21 04:00:00,16.1,12.4,30.38,NNW,340,1.0,1.0,85,0.00,,,0.00,Wunderground v.1.15,2013-02-21 09:00:00,
2013-02-21 04:05:00,16.1,12.4,30.39,NNW,340,0.0,22.0,85,0.00,,,0.00,Wunderground v.1.15,2013-02-21 09:05:00,
2013-02-21 04:10:00,16.1,12.4,30.39,North,9,0.0,22.0,85,0.00,,,0.00,Wunderground v.1.15,2013-02-21 09:10:00,
2013-02-21 04:15:00,15.8,12.1,30.39,NNE,22,0.0,22.0,85,0.00,,,0.00,Wunderground v.1.15,2013-02-21 09:15:00,
2013-02-21 04:25:00,15.5,11.8,30.39,NW,325,0.0,22.0,85,0.00,,,0.00,Wunderground v.1.15,2013-02-21 09:25:00,
2013-02-21 04:30:00,15.4,12.0,30.39,NW,323,0.0,22.0,86,0.00,,,0.00,Wunderground v.1.15,2013-02-21 09:30:00,
2013-02-21 04:35:00,15.3,11.9,30.39,NE,44,0.0,22.0,86,0.00,,,0.00,Wunderground v.1.15,2013-02-21 09:35:00,
2013-02-21 04:40:00,15.2,11.8,30.40,NNW,344,1.0,1.0,86,0.00,,,0.00,Wunderground v.1.15,2013-02-21 09:40:00,
2013-02-21 04:45:00,15.2,11.8,30.40,NE,40,1.0,22.0,86,0.00,,,0.00,Wunderground v.1.15,2013-02-21 09:45:00,
2013-02-21 04:55:00,15.0,11.6,30.40,NW,313,0.0,22.0,86,0.00,,,0.00,Wunderground v.1.15,2013-02-21 09:55:00,
2013-02-21 05:05:00,14.9,11.2,30.40,NE,44,0.0,22.0,85,0.00,,,0.00,Wunderground v.1.15,2013-02-21 10:05:00,
2013-02-21 05:10:00,14.8,11.1,30.40,NNE,17,0.0,22.0,85,0.00,,,0.00,Wunderground v.1.15,2013-02-21 10:10:00,
2013-02-21 05:20:00,14.7,11.3,30.40,ENE,62,0.0,22.0,86,0.00,,,0.00,Wunderground v.1.15,2013-02-21 10:20:00,
2013-02-21 05:25:00,14.6,10.9,30.40,NE,51,0.0,22.0,85,0.00,,,0.00,Wunderground v.1.15,2013-02-21 10:25:00,
2013-02-21 05:30:00,14.6,10.9,30.40,NE,36,1.0,1.0,85,0.00,,,0.00,Wunderground v.1.15,2013-02-21 10:30:00,
2013-02-21 05:35:00,14.6,10.9,30.40,NNE,32,1.0,22.0,85,0.00,,,0.00,Wunderground v.1.15,2013-02-21 10:35:00,
2013-02-21 05:40:00,14.6,10.9,30.40,NE,40,0.0,22.0,85,0.00,,,0.00,Wunderground v.1.15,2013-02-21 10:40:00,
2013-02-21 05:45:00,14.5,10.8,30.41,ENE,67,0.0,22.0,85,0.00,,,0.00,Wunderground v.1.15,2013-02-21 10:45:00,
2013-02-21 05:55:00,14.5,11.1,30.41,East,91,1.0,22.0,86,0.00,,,0.00,Wunderground v.1.15,2013-02-21 10:55:00,
2013-02-21 06:00:00,14.5,11.1,30.41,North,5,1.0,1.0,86,0.00,,,0.00,Wunderground v.1.15,2013-02-21 11:00:00,
2013-02-21 06:05:00,14.5,11.1,30.41,NE,41,1.0,22.0,86,0.00,,,0.00,Wunderground v.1.15,2013-02-21 11:05:00,
2013-02-21 06:10:00,14.5,11.1,30.42,NE,42,0.0,22.0,86,0.00,,,0.00,Wunderground v.1.15,2013-02-21 11:10:00,
2013-02-21 06:15:00,14.5,11.1,30.42,ENE,68,0.0,22.0,86,0.00,,,0.00,Wunderground v.1.15,2013-02-21 11:15:00,
2013-02-21 06:25:00,14.5,11.1,30.42,ENE,68,0.0,22.0,86,0.00,,,0.00,Wunderground v.1.15,2013-02-21 11:25:00,
2013-02-21 06:30:00,14.4,11.0,30.42,ENE,68,0.0,22.0,86,0.00,,,0.00,Wunderground v.1.15,2013-02-21 11:30:00,
2013-02-21 06:35:00,14.4,11.0,30.42,ENE,68,0.0,22.0,86,0.00,,,0.00,Wunderground v.1.15,2013-02-21 11:35:00,
2013-02-21 06:40:00,14.4,11.0,30.43,ENE,68,0.0,22.0,86,0.00,,,0.00,Wunderground v.1.15,2013-02-21 11:40:00,
2013-02-21 06:45:00,14.3,11.1,30.43,ENE,68,0.0,22.0,87,0.00,,,0.00,Wunderground v.1.15,2013-02-21 11:45:00,
2013-02-21 06:50:00,14.4,11.2,30.43,ENE,68,1.0,22.0,87,0.00,,,0.00,Wunderground v.1.15,2013-02-21 11:50:00,
2013-02-21 07:00:00,14.4,11.2,30.44,ENE,71,1.0,1.0,87,0.00,,,0.00,Wunderground v.1.15,2013-02-21 12:00:00,
2013-02-21 07:05:00,14.4,11.2,30.44,ENE,70,0.0,22.0,87,0.00,,,0.00,Wunderground v.1.15,2013-02-21 12:05:00,
2013-02-21 07:10:00,14.4,11.2,30.44,ENE,70,0.0,22.0,87,0.00,,,0.00,Wunderground v.1.15,2013-02-21 12:10:00,
2013-02-21 07:15:00,14.4,11.2,30.44,ENE,70,0.0,22.0,87,0.00,,,0.00,Wunderground v.1.15,2013-02-21 12:15:00,
2013-02-21 07:20:00,14.5,11.3,30.45,ENE,69,0.0,22.0,87,0.00,,,0.00,Wunderground v.1.15,2013-02-21 12:20:00,
2013-02-21 07:30:00,14.6,11.4,30.45,ENE,70,0.0,22.0,87,0.00,,,0.00,Wunderground v.1.15,2013-02-21 12:30:00,
2013-02-21 07:35:00,14.6,11.4,30.45,ENE,69,0.0,22.0,87,0.00,,,0.00,Wunderground v.1.15,2013-02-21 12:35:00,
2013-02-21 07:40:00,14.6,11.4,30.45,ENE,69,0.0,22.0,87,0.00,,,0.00,Wunderground v.1.15,2013-02-21 12:40:00,
2013-02-21 07:45:00,14.6,11.4,30.46,ENE,70,0.0,22.0,87,0.00,,,0.00,Wunderground v.1.15,2013-02-21 12:45:00,
2013-02-21 07:50:00,14.6,11.4,30.46,ENE,70,0.0,22.0,87,0.00,,,0.00,Wunderground v.1.15,2013-02-21 12:50:00,
2013-02-21 07:55:00,14.6,11.4,30.46,ENE,69,0.0,22.0,87,0.00,,,0.00,Wunderground v.1.15,2013-02-21 12:55:00,
2013-02-21 08:05:00,14.6,11.4,30.46,ENE,70,0.0,22.0,87,0.00,,,0.00,Wunderground v.1.15,2013-02-21 13:05:00,
2013-02-21 08:10:00,14.6,11.4,30.46,ENE,70,0.0,22.0,87,0.00,,,0.00,Wunderground v.1.15,2013-02-21 13:10:00,
2013-02-21 08:20:00,14.7,11.5,30.46,ENE,70,0.0,22.0,87,0.00,,,0.00,Wunderground v.1.15,2013-02-21 13:20:00,
2013-02-21 08:30:00,15.0,11.8,30.47,NNW,337,0.0,22.0,87,0.00,,,0.00,Wunderground v.1.15,2013-02-21 13:30:00,
2013-02-21 08:35:00,15.3,12.1,30.47,NNW,338,0.0,22.0,87,0.00,,,0.00,Wunderground v.1.15,2013-02-21 13:35:00,
2013-02-21 08:40:00,15.5,12.3,30.47,NNW,336,0.0,22.0,87,0.00,,,0.00,Wunderground v.1.15,2013-02-21 13:40:00,
2013-02-21 08:45:00,15.7,12.5,30.47,NE,42,0.0,22.0,87,0.00,,,0.00,Wunderground v.1.15,2013-02-21 13:45:00,
2013-02-21 08:50:00,15.8,12.6,30.47,NNW,333,0.0,22.0,87,0.00,,,0.00,Wunderground v.1.15,2013-02-21 13:50:00,
2013-02-21 08:55:00,16.0,12.8,30.46,NNE,13,1.0,22.0,87,0.00,,,0.00,Wunderground v.1.15,2013-02-21 13:55:00,
2013-02-21 09:00:00,16.1,12.7,30.46,NE,44,1.0,1.0,86,0.00,,,0.00,Wunderground v.1.15,2013-02-21 14:00:00,
2013-02-21 09:10:00,16.3,12.8,30.46,North,10,1.0,22.0,86,0.00,,,0.00,Wunderground v.1.15,2013-02-21 14:10:00,
2013-02-21 09:15:00,16.3,12.8,30.45,NNE,32,1.0,22.0,86,0.00,,,0.00,Wunderground v.1.15,2013-02-21 14:15:00,
2013-02-21 09:20:00,16.3,12.8,30.44,NE,51,1.0,1.0,86,0.00,,,0.00,Wunderground v.1.15,2013-02-21 14:20:00,
2013-02-21 09:25:00,16.3,12.8,30.44,NNW,338,1.0,22.0,86,0.00,,,0.00,Wunderground v.1.15,2013-02-21 14:25:00,
2013-02-21 09:30:00,16.4,12.9,30.43,NE,41,1.0,1.0,86,0.00,,,0.00,Wunderground v.1.15,2013-02-21 14:30:00,
2013-02-21 09:40:00,16.3,12.8,30.42,NNW,345,1.0,22.0,86,0.00,,,0.00,Wunderground v.1.15,2013-02-21 14:40:00,
2013-02-21 09:45:00,16.2,12.7,30.42,NE,38,1.0,22.0,86,0.00,,,0.00,Wunderground v.1.15,2013-02-21 14:45:00,
2013-02-21 09:50:00,15.9,12.2,30.42,NE,52,1.0,1.0,85,0.00,,,0.00,Wunderground v.1.15,2013-02-21 14:50:00,
2013-02-21 09:55:00,15.8,12.1,30.42,NW,321,1.0,22.0,85,0.00,,,0.00,Wunderground v.1.15,2013-02-21 14:55:00,
2013-02-21 10:00:00,15.7,12.0,30.42,NNW,345,2.0,22.0,85,0.00,,,0.00,Wunderground v.1.15,2013-02-21 15:00:00,
2013-02-21 10:05:00,15.7,12.3,30.42,NNW,331,2.0,22.0,86,0.00,,,0.00,Wunderground v.1.15,2013-02-21 15:05:00,
2013-02-21 10:15:00,15.9,12.2,30.42,NE,42,2.0,3.0,85,0.00,,,0.00,Wunderground v.1.15,2013-02-21 15:15:00,
2013-02-21 10:20:00,15.9,12.2,30.42,NW,325,2.0,22.0,85,0.00,,,0.00,Wunderground v.1.15,2013-02-21 15:20:00,
2013-02-21 10:25:00,15.7,12.0,30.41,NNE,19,3.0,22.0,85,0.00,,,0.00,Wunderground v.1.15,2013-02-21 15:25:00,
2013-02-21 10:30:00,15.8,12.1,30.41,NNW,339,2.0,2.0,85,0.00,,,0.00,Wunderground v.1.15,2013-02-21 15:30:00,
2013-02-21 10:35:00,15.7,11.7,30.41,East,83,2.0,4.0,84,0.00,,,0.00,Wunderground v.1.15,2013-02-21 15:35:00,
2013-02-21 10:45:00,15.6,11.6,30.42,ENE,68,3.0,22.0,84,0.00,,,0.00,Wunderground v.1.15,2013-02-21 15:45:00,
2013-02-21 10:50:00,15.7,11.5,30.42,NNW,338,2.0,2.0,83,0.00,,,0.00,Wunderground v.1.15,2013-02-21 15:50:00,
2013-02-21 10:55:00,16.0,11.7,30.43,North,355,2.0,22.0,83,0.00,,,0.00,Wunderground v.1.15,2013-02-21 15:55:00,
2013-02-21 11:00:00,16.1,11.6,30.44,West,275,2.0,22.0,82,0.00,,,0.00,Wunderground v.1.15,2013-02-21 16:00:00,
2013-02-21 11:05:00,16.1,11.6,30.45,North,360,2.0,22.0,82,0.00,,,0.00,Wunderground v.1.15,2013-02-21 16:05:00,
2013-02-21 11:10:00,16.2,11.4,30.46,ENE,62,2.0,2.0,81,0.00,,,0.00,Wunderground v.1.15,2013-02-21 16:10:00,
2013-02-21 11:20:00,16.1,10.7,30.46,East,96,1.0,22.0,79,0.00,,,0.00,Wunderground v.1.15,2013-02-21 16:20:00,
2013-02-21 11:25:00,16.0,10.6,30.46,East,94,2.0,22.0,79,0.00,,,0.00,Wunderground v.1.15,2013-02-21 16:25:00,
2013-02-21 11:30:00,16.1,10.7,30.45,East,101,1.0,1.0,79,0.00,,,0.00,Wunderground v.1.15,2013-02-21 16:30:00,
2013-02-21 11:40:00,16.4,10.7,30.45,ENE,67,1.0,22.0,78,0.00,,,0.00,Wunderground v.1.15,2013-02-21 16:40:00,
2013-02-21 11:45:00,16.3,10.6,30.45,ESE,119,2.0,22.0,78,0.00,,,0.00,Wunderground v.1.15,2013-02-21 16:45:00,
2013-02-21 11:50:00,16.6,10.9,30.45,East,86,1.0,22.0,78,0.00,,,0.00,Wunderground v.1.15,2013-02-21 16:50:00,
2013-02-21 11:55:00,16.3,10.4,30.45,NE,36,1.0,22.0,77,0.00,,,0.00,Wunderground v.1.15,2013-02-21 16:55:00,
2013-02-21 12:00:00,16.6,10.6,30.45,ESE,114,1.0,22.0,77,0.00,,,0.00,Wunderground v.1.15,2013-02-21 17:00:00,
2013-02-21 12:10:00,17.4,10.8,30.45,NW,319,1.0,1.0,75,0.00,,,0.00,Wunderground v.1.15,2013-02-21 17:10:00,
2013-02-21 12:15:00,17.8,11.2,30.45,NE,56,2.0,2.0,75,0.00,,,0.00,Wunderground v.1.15,2013-02-21 17:15:00,
2013-02-21 12:20:00,18.0,11.4,30.46,West,263,2.0,2.0,75,0.00,,,0.00,Wunderground v.1.15,2013-02-21 17:20:00,
2013-02-21 12:25:00,18.2,11.3,30.46,SSW,213,1.0,22.0,74,0.00,,,0.00,Wunderground v.1.15,2013-02-21 17:25:00,
2013-02-21 12:30:00,18.9,12.3,30.46,NNW,331,1.0,1.0,75,0.00,,,0.00,Wunderground v.1.15,2013-02-21 17:30:00,
2013-02-21 12:35:00,19.7,12.1,30.46,ENE,62,1.0,22.0,72,0.00,,,0.00,Wunderground v.1.15,2013-02-21 17:35:00,
2013-02-21 12:45:00,20.0,12.7,30.45,NW,311,0.0,22.0,73,0.00,,,0.00,Wunderground v.1.15,2013-02-21 17:45:00,
2013-02-21 12:50:00,19.5,11.3,30.45,West,276,1.0,1.0,70,0.00,,,0.00,Wunderground v.1.15,2013-02-21 17:50:00,
2013-02-21 12:55:00,19.1,11.2,30.44,WNW,292,1.0,2.0,71,0.00,,,0.00,Wunderground v.1.15,2013-02-21 17:55:00,
2013-02-21 13:00:00,19.0,11.1,30.44,West,269,1.0,1.0,71,0.00,,,0.00,Wunderground v.1.15,2013-02-21 18:00:00,
2013-02-21 13:05:00,19.1,11.6,30.44,NW,307,1.0,22.0,72,0.00,,,0.00,Wunderground v.1.15,2013-02-21 18:05:00,
2013-02-21 13:15:00,18.6,11.4,30.44,West,262,1.0,22.0,73,0.00,,,0.00,Wunderground v.1.15,2013-02-21 18:15:00,
2013-02-21 13:20:00,18.4,11.5,30.45,SW,234,0.0,22.0,74,0.00,,,0.00,Wunderground v.1.15,2013-02-21 18:20:00,
2013-02-21 13:25:00,19.0,12.7,30.46,West,263,0.0,22.0,76,0.00,,,0.00,Wunderground v.1.15,2013-02-21 18:25:00,
2013-02-21 13:30:00,19.5,12.3,30.45,NW,319,0.0,22.0,73,0.00,,,0.00,Wunderground v.1.15,2013-02-21 18:30:00,
2013-02-21 13:35:00,19.8,12.2,30.44,NW,322,0.0,22.0,72,0.00,,,0.00,Wunderground v.1.15,2013-02-21 18:35:00,
2013-02-21 13:40:00,20.1,11.9,30.44,SSE,157,1.0,1.0,70,0.00,,,0.00,Wunderground v.1.15,2013-02-21 18:40:00,
2013-02-21 13:50:00,20.3,11.7,30.44,West,277,1.0,22.0,69,0.00,,,0.00,Wunderground v.1.15,2013-02-21 18:50:00,
2013-02-21 13:55:00,20.2,12.0,30.44,WSW,244,1.0,22.0,70,0.00,,,0.00,Wunderground v.1.15,2013-02-21 18:55:00,
2013-02-21 14:00:00,20.4,12.2,30.44,NW,323,1.0,22.0,70,0.00,,,0.00,Wunderground v.1.15,2013-02-21 19:00:00,
2013-02-21 14:05:00,20.6,12.4,30.43,NNW,340,2.0,22.0,70,0.00,,,0.00,Wunderground v.1.15,2013-02-21 19:05:00,
2013-02-21 14:10:00,20.8,12.2,30.43,WNW,298,1.0,1.0,69,0.00,,,0.00,Wunderground v.1.15,2013-02-21 19:10:00,
2013-02-21 14:20:00,21.0,14.6,30.44,SE,140,1.0,22.0,76,0.00,,,0.00,Wunderground v.1.15,2013-02-21 19:20:00,
2013-02-21 14:25:00,21.8,13.8,30.44,SE,137,1.0,22.0,71,0.00,,,0.00,Wunderground v.1.15,2013-02-21 19:25:00,
2013-02-21 14:30:00,22.4,14.7,30.44,SE,140,1.0,1.0,72,0.00,,,0.00,Wunderground v.1.15,2013-02-21 19:30:00,
2013-02-21 14:35:00,23.0,15.0,30.43,SE,140,0.0,22.0,71,0.00,,,0.00,Wunderground v.1.15,2013-02-21 19:35:00,
2013-02-21 14:40:00,23.0,15.3,30.43,NW,318,1.0,1.0,72,0.00,,,0.00,Wunderground v.1.15,2013-02-21 19:40:00,
2013-02-21 14:45:00,23.0,13.7,30.43,NE,37,1.0,2.0,67,0.00,,,0.00,Wunderground v.1.15,2013-02-21 19:45:00,
2013-02-21 14:55:00,22.4,12.8,30.42,East,88,1.0,22.0,66,0.00,,,0.00,Wunderground v.1.15,2013-02-21 19:55:00,
2013-02-21 15:00:00,22.0,12.4,30.42,NE,52,2.0,2.0,66,0.00,,,0.00,Wunderground v.1.15,2013-02-21 20:00:00,
2013-02-21 15:05:00,22.2,12.2,30.43,NNE,32,2.0,22.0,65,0.00,,,0.00,Wunderground v.1.15,2013-02-21 20:05:00,
2013-02-21 15:10:00,22.2,12.2,30.42,East,97,1.0,1.0,65,0.00,,,0.00,Wunderground v.1.15,2013-02-21 20:10:00,
2013-02-21 15:15:00,22.4,12.1,30.42,NNW,335,2.0,4.0,64,0.00,,,0.00,Wunderground v.1.15,2013-02-21 20:15:00,
2013-02-21 15:20:00,22.8,12.4,30.42,East,81,2.0,22.0,64,0.00,,,0.00,Wunderground v.1.15,2013-02-21 20:20:00,
2013-02-21 15:30:00,22.4,12.1,30.41,NE,52,2.0,2.0,64,0.00,,,0.00,Wunderground v.1.15,2013-02-21 20:30:00,
2013-02-21 15:35:00,22.4,11.7,30.41,ENE,62,2.0,22.0,63,0.00,,,0.00,Wunderground v.1.15,2013-02-21 20:35:00,
2013-02-21 15:45:00,22.1,12.1,30.41,SE,132,1.0,22.0,65,0.00,,,0.00,Wunderground v.1.15,2013-02-21 20:45:00,
2013-02-21 15:50:00,22.2,11.9,30.41,ENE,73,1.0,1.0,64,0.00,,,0.00,Wunderground v.1.15,2013-02-21 20:50:00,
2013-02-21 15:55:00,22.0,11.7,30.41,ENE,67,1.0,22.0,64,0.00,,,0.00,Wunderground v.1.15,2013-02-21 20:55:00,
2013-02-21 16:05:00,22.0,11.7,30.40,East,88,1.0,2.0,64,0.00,,,0.00,Wunderground v.1.15,2013-02-21 21:05:00,
2013-02-21 16:10:00,21.9,11.9,30.39,NE,49,1.0,22.0,65,0.00,,,0.00,Wunderground v.1.15,2013-02-21 21:10:00,
2013-02-21 16:15:00,21.9,11.9,30.39,NE,50,2.0,22.0,65,0.00,,,0.00,Wunderground v.1.15,2013-02-21 21:15:00,
2013-02-21 16:25:00,22.2,12.2,30.38,East,88,1.0,22.0,65,0.00,,,0.00,Wunderground v.1.15,2013-02-21 21:25:00,
2013-02-21 16:30:00,22.1,11.8,30.39,NE,45,1.0,1.0,64,0.00,,,0.00,Wunderground v.1.15,2013-02-21 21:30:00,
2013-02-21 16:35:00,22.1,11.8,30.39,NNE,16,1.0,22.0,64,0.00,,,0.00,Wunderground v.1.15,2013-02-21 21:35:00,
2013-02-21 16:45:00,22.2,11.9,30.39,NNE,16,1.0,22.0,64,0.00,,,0.00,Wunderground v.1.15,2013-02-21 21:45:00,
2013-02-21 16:50:00,22.2,11.9,30.40,NNE,22,1.0,22.0,64,0.00,,,0.00,Wunderground v.1.15,2013-02-21 21:50:00,
2013-02-21 16:55:00,22.2,11.9,30.40,ENE,69,1.0,22.0,64,0.00,,,0.00,Wunderground v.1.15,2013-02-21 21:55:00,
2013-02-21 17:05:00,22.0,11.7,30.40,North,9,1.0,22.0,64,0.00,,,0.00,Wunderground v.1.15,2013-02-21 22:05:00,
2013-02-21 17:10:00,21.8,11.5,30.41,ENE,64,1.0,1.0,64,0.00,,,0.00,Wunderground v.1.15,2013-02-21 22:10:00,
2013-02-21 17:15:00,21.7,11.4,30.41,ENE,78,1.0,2.0,64,0.00,,,0.00,Wunderground v.1.15,2013-02-21 22:15:00,
2013-02-21 17:20:00,21.6,11.3,30.40,ENE,78,0.0,22.0,64,0.00,,,0.00,Wunderground v.1.15,2013-02-21 22:20:00,
2013-02-21 17:25:00,21.6,11.3,30.40,North,10,0.0,22.0,64,0.00,,,0.00,Wunderground v.1.15,2013-02-21 22:25:00,
2013-02-21 17:35:00,21.5,11.5,30.40,North,355,0.0,22.0,65,0.00,,,0.00,Wunderground v.1.15,2013-02-21 22:35:00,
2013-02-21 17:40:00,21.5,11.5,30.40,North,360,0.0,22.0,65,0.00,,,0.00,Wunderground v.1.15,2013-02-21 22:40:00,